Location: Unspecified
(0.0000°N, 0.0000°E)
Time: 07:05:30
(UTC+00:00)

NOSS 3-1 (A) - Pass Details

Date: 21 April 2019
Orbit: 778 x 1434 km, 63.4° (Epoch: 13 May)

Event Time Altitude Azimuth Distance (km) Brightness Sun altitude
Rises 04:01:55 0° 7° (N) 4,371 7.1 -28.6°
Reaches altitude 10° 04:05:48 10° 24° (NNE) 3,468 6.8 -27.6°
Maximum altitude 04:11:38 20° 67° (ENE) 2,839 6.7 -26.2°
Drops below altitude 10° 04:17:31 10° 109° (ESE) 3,530 7.1 -24.8°
Sets 04:21:27 0° 125° (SE) 4,474 7.5 -23.8°
